PROBA-1 1 26958U 01049B 26034.49395122 .00005374 00000+0 35304-3 0 9990 2 26958 97.9597 38.4071 0054821 213.8126 145.9601 15.06831937323483 CUTE-1 (CO-55) 1 27844U 03031E 26034.49149958 .00000381 00000+0 18433-3 0 9999 2 27844 98.6772 44.7182 0009054 208.2248 151.8442 14.24235794172642 CUBESAT XI-IV (CO-57) 1 27848U 03031J 26034.48377407 .00000316 00000+0 15816-3 0 9994 2 27848 98.6801 44.5306 0008661 227.7020 132.3425 14.23535418172350 APRIZESAT 4 1 35684U 09041D 26034.46227780 .00000966 00000+0 12208-3 0 9997 2 35684 98.1555 107.0686 0044208 36.7270 323.6958 14.83636331891532 APRIZESAT 3 1 35686U 09041F 26034.39456413 .00002563 00000+0 22704-3 0 9995 2 35686 98.1830 181.4149 0062825 148.1723 212.3317 14.95724384896375 PROBA-2 1 36037U 09059B 26034.46792552 .00000345 00000+0 91051-4 0 9998 2 36037 98.2400 219.6838 0012687 338.6163 21.4502 14.54763864862081 APRIZESAT 5 1 37792U 11044E 26034.22651258 .00001442 00000+0 19018-3 0 9996 2 37792 98.2390 323.5662 0053930 74.4468 286.2688 14.80739132778966 APRIZESAT 6 1 37793U 11044F 26034.34324197 .00000945 00000+0 14099-3 0 9990 2 37793 98.2446 302.0794 0043823 152.5566 328.2415 14.76676969777398 PROBA-V 1 39159U 13021A 26034.50640441 .00000078 00000+0 52318-4 0 9990 2 39159 98.3452 19.8087 0004616 149.9070 210.2376 14.23564328662092 APRIZESAT 7 1 39416U 13066A 26034.43671719 .00001949 00000+0 20004-3 0 9993 2 39416 97.7547 349.7504 0034610 296.1103 63.6555 14.91150282661299 APRIZESAT 8 1 39425U 13066K 26034.41204241 .00001937 00000+0 21671-3 0 9991 2 39425 97.8073 343.9029 0046503 8.1294 352.0665 14.87301444659789 BUGSAT-1 (TITA) 1 40014U 14033E 26034.54091892 .00005894 00000+0 32541-3 0 9996 2 40014 98.0490 119.4271 0027735 277.2596 82.5482 15.14035638635603 SAUDISAT 4 1 40016U 14033G 26034.40540603 .00001194 00000+0 16449-3 0 9990 2 40016 97.7349 185.3479 0045730 147.4208 212.9841 14.79311584626299 APRIZESAT 9 1 40018U 14033J 26034.35184002 .00000963 00000+0 14964-3 0 9996 2 40018 97.8830 171.0115 0065084 270.6631 88.7121 14.73991618623843 APRIZESAT 10 1 40019U 14033K 26034.30945932 .00000628 00000+0 10671-3 0 9998 2 40019 97.9436 164.4382 0078614 342.2733 17.5733 14.70693109622570 TECHDEMOSAT-1 (TDS-1) 1 40076U 14037H 26034.49054113 .00012758 00000+0 77237-3 0 9995 2 40076 98.3727 13.7773 0007068 15.9548 344.1901 15.10752470628028 TECHNOSAT 1 42829U 17042E 26034.43320844 .00004654 00000+0 34040-3 0 9994 2 42829 97.4094 197.4012 0017806 184.7704 175.3355 15.03947318466597 FLYING LAPTOP 1 42831U 17042G 26034.49878435 .00002646 00000+0 21534-3 0 9990 2 42831 97.4210 195.7154 0015384 214.2362 145.7872 15.00271677466406 HAWK-A 1 43765U 18099H 26034.18127377 .00008480 00000+0 36054-3 0 9993 2 43765 97.4121 88.2095 0037333 38.8310 321.5598 15.22633016392696 HAWK-B 1 43794U 18099AN 26034.11525985 .00007225 00000+0 32388-3 0 9997 2 43794 97.4170 87.8244 0034616 55.4842 304.9654 15.20978293392649 HAWK-C 1 43799U 18099AT 26034.44491289 .00009763 00000+0 37544-3 0 9995 2 43799 97.4101 88.7614 0043635 40.0592 320.3850 15.25707414393508 SALSAT 1 46495U 20068K 26034.48477916 .00010160 00000+0 38041-3 0 9991 2 46495 97.8823 29.6576 0011930 57.5986 302.6405 15.27442654294933 HAWK-2C 1 47502U 21006CT 26034.40707271 .00011093 00000+0 35342-3 0 9993 2 47502 97.2485 81.4214 0006072 333.9533 26.1403 15.32696484278998 HAWK-2A 1 47505U 21006CW 26034.08415387 .00008789 00000+0 28091-3 0 9995 2 47505 97.2526 81.7038 0005849 339.6672 20.4336 15.32662143278944 HAWK-2B 1 47508U 21006CZ 26034.08091037 .00008751 00000+0 27945-3 0 9996 2 47508 97.2395 80.2587 0006422 336.5143 23.5805 15.32688107278944 HAWK-3B 1 48931U 21059BE 26034.49289331 .00038537 00000+0 49758-3 0 9997 2 48931 97.6702 219.6226 0006455 96.5742 263.6248 15.58859300256951 HAWK-3C 1 48948U 21059BX 26034.49269034 .00037280 00000+0 48172-3 0 9996 2 48948 97.6856 225.0498 0006965 97.1605 263.0442 15.58842352256951 HAWK-3A 1 48957U 21059CG 26034.49252057 .00037604 00000+0 48580-3 0 9996 2 48957 97.6790 222.3700 0006544 96.8261 263.3739 15.58849452256951 HAWK-5C 1 52754U 22057Y 26034.37096703 .00022326 00000+0 46010-3 0 9997 2 52754 97.6411 186.1135 0004954 188.1412 171.9757 15.45913424205636 HAWK-5B 1 52756U 22057AA 26034.50027186 .00024323 00000+0 50081-3 0 9995 2 52756 97.6394 184.5947 0005002 183.5337 176.5877 15.45921698205659 HAWK-5A 1 52757U 22057AB 26034.50001512 .00022781 00000+0 46923-3 0 9997 2 52757 97.6404 185.4253 0005419 184.9928 175.1267 15.45922306205650 HAWK-6B 1 55324U 23011A 26034.41367189 .00006738 00000+0 30220-3 0 9993 2 55324 40.5148 51.4677 0003038 202.8746 157.1928 15.21416890167459 HAWK-6C 1 55326U 23011C 26034.41306104 .00007203 00000+0 32243-3 0 9990 2 55326 40.4835 48.4289 0002747 189.9519 170.1235 15.21416568167466 HAWK-6A 1 55327U 23011D 26034.41307138 .00006786 00000+0 30428-3 0 9997 2 55327 40.4993 49.9901 0002437 194.9948 165.0789 15.21416002167467 HAWK-7A 1 56191U 23054P 26034.48137754 .00007710 00000+0 28602-3 0 9995 2 56191 97.2886 285.1657 0007627 206.9040 153.1805 15.27845454156629 HAWK-7B 1 56193U 23054R 26034.21924825 .00007293 00000+0 27076-3 0 9991 2 56193 97.2914 283.1223 0008219 215.0066 145.0634 15.27834950156581 HAWK-7C 1 56200U 23054Y 26034.48100972 .00007534 00000+0 27957-3 0 9994 2 56200 97.2896 284.1898 0007485 212.3933 147.6848 15.27844249156627